Previsão horária em Cerritos

Hoje, 27 Julho, Terça-feira

Tempo Temperatura Precipitação Vento Pressão Humidade
00:00 +23°C° 0 mm 2 m/s 759 mmHg 79%
01:00 +23°C° 0 mm 2 m/s 758 mmHg 80%
02:00 +23°C° 0 mm 2 m/s 758 mmHg 80%
03:00 +23°C° 0 mm 2 m/s 758 mmHg 80%
04:00 +23°C° 0 mm 1 m/s 758 mmHg 80%
05:00 +23°C° 0 mm 2 m/s 758 mmHg 78%
06:00 +24°C° 0 mm 2 m/s 759 mmHg 75%
07:00 +24°C° 0 mm 2 m/s 759 mmHg 73%
08:00 +26°C° 0 mm 2 m/s 759 mmHg 67%
09:00 +27°C° 0 mm 3 m/s 759 mmHg 61%
10:00 +29°C° 0 mm 3 m/s 759 mmHg 55%
11:00 +29°C° 0 mm 3 m/s 759 mmHg 53%
12:00 +30°C° 0 mm 4 m/s 759 mmHg 51%
13:00 +32°C° 0 mm 4 m/s 758 mmHg 49%
14:00 +30°C° 0 mm 4 m/s 758 mmHg 49%
15:00 +30°C° 0 mm 4 m/s 758 mmHg 50%
16:00 +29°C° 0 mm 4 m/s 758 mmHg 51%
17:00 +29°C° 0 mm 4 m/s 758 mmHg 53%
18:00 +28°C° 0 mm 3 m/s 759 mmHg 55%
19:00 +27°C° 0 mm 3 m/s 759 mmHg 58%
20:00 +26°C° 0 mm 2 m/s 759 mmHg 60%
21:00 +26°C° 0 mm 2 m/s 759 mmHg 62%
22:00 +25°C° 0 mm 2 m/s 759 mmHg 64%
23:00 +25°C° 0 mm 2 m/s 759 mmHg 65%

Amanhã, 28 Julho, Quarta-feira

Tempo Temperatura Precipitação Vento Pressão Humidade
00:00 +25°C° 0 mm 2 m/s 759 mmHg 66%
01:00 +25°C° 0 mm 1 m/s 759 mmHg 67%
02:00 +25°C° 0 mm 1 m/s 759 mmHg 67%
03:00 +25°C° 0 mm 2 m/s 759 mmHg 66%
04:00 +24°C° 0 mm 2 m/s 759 mmHg 66%
05:00 +25°C° 0 mm 2 m/s 759 mmHg 65%
06:00 +25°C° 0 mm 2 m/s 760 mmHg 63%
07:00 +26°C° 0 mm 2 m/s 760 mmHg 61%
08:00 +27°C° 0 mm 2 m/s 760 mmHg 56%
09:00 +29°C° 0 mm 2 m/s 760 mmHg 50%
10:00 +30°C° 0 mm 3 m/s 760 mmHg 44%
11:00 +31°C° 0 mm 3 m/s 760 mmHg 42%
12:00 +32°C° 0 mm 4 m/s 760 mmHg 40%
13:00 +33°C° 0 mm 5 m/s 759 mmHg 38%
14:00 +33°C° 0 mm 5 m/s 759 mmHg 38%
15:00 +33°C° 0 mm 5 m/s 759 mmHg 37%
16:00 +32°C° 0 mm 5 m/s 758 mmHg 36%
17:00 +30°C° 0 mm 4 m/s 758 mmHg 39%
18:00 +29°C° 0 mm 3 m/s 758 mmHg 42%
19:00 +28°C° 0 mm 3 m/s 758 mmHg 44%
20:00 +28°C° 0 mm 2 m/s 758 mmHg 48%
21:00 +27°C° 0 mm 2 m/s 759 mmHg 51%
22:00 +26°C° 0 mm 2 m/s 759 mmHg 54%
23:00 +26°C° 0 mm 2 m/s 759 mmHg 56%

Depois de amanhã, 29 Julho, Quinta-feira

Tempo Temperatura Precipitação Vento Pressão Humidade
00:00 +26°C° 0 mm 1 m/s 759 mmHg 57%
01:00 +25°C° 0 mm 1 m/s 758 mmHg 59%
02:00 +25°C° 0 mm 1 m/s 758 mmHg 60%
03:00 +25°C° 0 mm 1 m/s 758 mmHg 60%
04:00 +25°C° 0 mm 1 m/s 757 mmHg 61%
05:00 +25°C° 0 mm 1 m/s 758 mmHg 59%
06:00 +26°C° 0 mm 1 m/s 758 mmHg 57%
07:00 +26°C° 0 mm 1 m/s 758 mmHg 55%
08:00 +28°C° 0 mm 2 m/s 758 mmHg 51%
09:00 +29°C° 0 mm 2 m/s 758 mmHg 47%
10:00 +30°C° 0 mm 3 m/s 758 mmHg 42%
11:00 +31°C° 0 mm 3 m/s 758 mmHg 41%
12:00 +33°C° 0 mm 4 m/s 757 mmHg 39%
13:00 +33°C° 0 mm 4 m/s 757 mmHg 37%
14:00 +33°C° 0 mm 4 m/s 757 mmHg 38%
15:00 +33°C° 0 mm 4 m/s 756 mmHg 38%
16:00 +33°C° 0 mm 4 m/s 756 mmHg 38%
17:00 +32°C° 0 mm 4 m/s 756 mmHg 42%
18:00 +29°C° 0 mm 4 m/s 756 mmHg 46%
19:00 +28°C° 0 mm 3 m/s 756 mmHg 49%
20:00 +28°C° 0 mm 3 m/s 757 mmHg 53%
21:00 +27°C° 0 mm 3 m/s 757 mmHg 57%
22:00 +26°C° 0 mm 2 m/s 757 mmHg 60%
23:00 +26°C° 0 mm 2 m/s 757 mmHg 62%

30 Julho, Sexta-feira

Tempo Temperatura Precipitação Vento Pressão Humidade
00:00 +25°C° 0 mm 2 m/s 757 mmHg 64%
01:00 +25°C° 0 mm 1 m/s 757 mmHg 66%
02:00 +25°C° 0 mm 2 m/s 757 mmHg 67%
03:00 +25°C° 0 mm 2 m/s 756 mmHg 68%
04:00 +24°C° 0 mm 2 m/s 756 mmHg 68%
05:00 +25°C° 0 mm 1 m/s 756 mmHg 66%
06:00 +25°C° 0 mm 1 m/s 757 mmHg 63%
07:00 +26°C° 0 mm 1 m/s 757 mmHg 61%
08:00 +27°C° 0 mm 1 m/s 757 mmHg 56%
09:00 +29°C° 0 mm 2 m/s 757 mmHg 50%
10:00 +30°C° 0 mm 2 m/s 757 mmHg 45%
11:00 +31°C° 0 mm 3 m/s 757 mmHg 42%
12:00 +33°C° 0 mm 3 m/s 756 mmHg 40%
13:00 +34°C° 0 mm 4 m/s 756 mmHg 38%
14:00 +33°C° 0 mm 4 m/s 756 mmHg 41%
15:00 +33°C° 0 mm 4 m/s 757 mmHg 43%
16:00 +32°C° 0 mm 4 m/s 757 mmHg 45%
17:00 +30°C° 0 mm 4 m/s 757 mmHg 47%
18:00 +30°C° 0 mm 3 m/s 757 mmHg 48%
19:00 +29°C° 0 mm 3 m/s 756 mmHg 49%
20:00 +29°C° 0 mm 3 m/s 757 mmHg 51%
21:00 +28°C° 0 mm 2 m/s 757 mmHg 52%
22:00 +27°C° 0 mm 2 m/s 757 mmHg 53%
23:00 +27°C° 0 mm 2 m/s 757 mmHg 56%

31 Julho, Sábado

Tempo Temperatura Precipitação Vento Pressão Humidade
00:00 +26°C° 0 mm 2 m/s 757 mmHg 59%
01:00 +26°C° 0 mm 2 m/s 757 mmHg 62%
02:00 +26°C° 0 mm 2 m/s 757 mmHg 63%
03:00 +25°C° 0 mm 2 m/s 757 mmHg 64%
04:00 +25°C° 0 mm 1 m/s 757 mmHg 65%
05:00 +25°C° 0 mm 1 m/s 758 mmHg 64%
06:00 +26°C° 0 mm 1 m/s 758 mmHg 63%
07:00 +24°C° 0 mm 0 m/s 758 mmHg 62%
08:00 +27°C° 0 mm 1 m/s 758 mmHg 57%
09:00 +28°C° 0 mm 2 m/s 758 mmHg 52%
10:00 +30°C° 0 mm 3 m/s 758 mmHg 48%
11:00 +30°C° 0 mm 3 m/s 758 mmHg 47%
12:00 +30°C° 0 mm 3 m/s 758 mmHg 46%
13:00 +32°C° 0 mm 4 m/s 758 mmHg 45%
14:00 +32°C° 0 mm 4 m/s 758 mmHg 44%
15:00 +32°C° 0 mm 4 m/s 758 mmHg 43%
16:00 +32°C° 0 mm 4 m/s 757 mmHg 42%
17:00 +30°C° 0 mm 3 m/s 757 mmHg 47%
18:00 +28°C° 0 mm 3 m/s 758 mmHg 52%
19:00 +27°C° 0 mm 3 m/s 758 mmHg 57%
20:00 +27°C° 0 mm 2 m/s 758 mmHg 59%
21:00 +26°C° 0 mm 2 m/s 758 mmHg 60%
22:00 +26°C° 0 mm 2 m/s 759 mmHg 62%
23:00 +26°C° 0 mm 2 m/s 759 mmHg 63%

1 Agosto, Domingo

Tempo Temperatura Precipitação Vento Pressão Humidade
00:00 +25°C° 0 mm 1 m/s 758 mmHg 64%
01:00 +25°C° 0 mm 1 m/s 758 mmHg 65%
02:00 +25°C° 0 mm 1 m/s 758 mmHg 66%
03:00 +25°C° 0 mm 1 m/s 758 mmHg 66%
04:00 +24°C° 0 mm 1 m/s 758 mmHg 67%
05:00 +25°C° 0 mm 1 m/s 759 mmHg 66%
06:00 +25°C° 0 mm 1 m/s 759 mmHg 64%
07:00 +25°C° 0 mm 1 m/s 759 mmHg 62%
08:00 +27°C° 0 mm 1 m/s 759 mmHg 56%
09:00 +28°C° 0 mm 2 m/s 759 mmHg 50%
10:00 +30°C° 0 mm 2 m/s 759 mmHg 44%
11:00 +30°C° 0.1 mm 3 m/s 759 mmHg 42%
12:00 +31°C° 0.1 mm 3 m/s 759 mmHg 40%
13:00 +33°C° 0.1 mm 4 m/s 758 mmHg 37%
14:00 +33°C° 0 mm 4 m/s 758 mmHg 38%
15:00 +32°C° 0 mm 4 m/s 758 mmHg 38%
16:00 +32°C° 0 mm 4 m/s 757 mmHg 39%
17:00 +30°C° 0 mm 3 m/s 758 mmHg 43%
18:00 +29°C° 0 mm 3 m/s 758 mmHg 47%
19:00 +28°C° 0 mm 3 m/s 758 mmHg 51%
20:00 +28°C° 0 mm 3 m/s 758 mmHg 54%
21:00 +27°C° 0 mm 2 m/s 758 mmHg 57%
22:00 +26°C° 0 mm 2 m/s 759 mmHg 60%
23:00 +26°C° 0 mm 2 m/s 758 mmHg 62%
Mostrar mais

Necessitamos do seu Consentimento

A Meteoprog e os seus Fornecedores de Serviços podem armazenar e aceder a dados pessoais como cookies, identificadores do dispositivo ou outras tecnologias semelhantes existentes no seu dispositivo e processar estes dados para personalizar conteúdos e anúncios, assim como funcionalidades nas redes sociais e análise de tráfego.

  • Armazenar e/ou aceder a informações no seu dispositivo

    Os cookies, identificadores do dispositivo ou outras informações podem ser armazenados ou acedidos no seu dispositivo, para os fins acima indicados.

  • Anúncios e conteúdos personalizados, medição de anúncios e conteúdos, dados sobre o público-alvo e desenvolvimento de produtos

    Os anúncios e os conteúdos podem ser personalizados com base num perfil. Podem ser adicionados dados adicionais para uma maior personalização dos anúncios e dos conteúdos. A eficácia dos anúncios e dos conteúdos pode ser medida. Podem ser obtidas informações sobre o público que visualizou os anúncios e os conteúdos. Estes dados podem ser usados para desenvolver ou melhorar sistemas, softwares ou a experiência do utilizador.

Ao clicar em "Eu concordo”, permitirá o uso de cookies, identificadores do dispositivo e web beacons mencionados ou outras tecnologias semelhantes. As configurações do navegador do seu dispositivo podem ser alteradas.

Para certos fins, podem ser invocados interesses legítimos ao invés de consentimento. Pode ler mais informação sobre este assunto na nossa Política de Privacidade e Cookies.